Location: Clarion
(42.7316°N, 93.7330°W)
Time: 21:08:31
(UTC+00:00)

Cosmos 1400 Rocket - Pass Details

Date: 22 April 2026
Orbit: 474 x 505 km, 81.1° (Epoch: 12 May)

Event Time Altitude Azimuth Distance (km) Brightness Sun altitude
Rises 02:32:08 0° 203° (SSW) 2,508 6.1 -15.4°
Reaches altitude 10° 02:34:17 10° 210° (SSW) 1,636 5.2 -15.7°
Maximum altitude 02:37:42 43° 283° (WNW) 681 3.8 -16.2°
Drops below altitude 10° 02:41:10 10° 357° (N) 1,657 5.8 -16.7°
Sets 02:43:22 0° 4° (N) 2,545 6.7 -17.1°
